Philadelphia, PA

12:25 AM EST on February 22, 2017 (GMT -0500)
Philadelphia International

Weather History for KPHL - October, 2012

Change the Weather History Date:

Wednesday, October 31, 2012

  Actual Average Record
Temperature  
Mean Temperature 47 °F 53 °F  
Max Temperature 51 °F 62 °F 82 °F (1946)
Min Temperature 43 °F 44 °F 26 °F (1966)
Degree Days  
Heating Degree Days 18 12  
Month to date heating degree days 196 253  
Since 1 July heating degree days 210 293  
Cooling Degree Days 0 0  
Month to date cooling degree days 31 22  
Year to date cooling degree days 1603 1300  
Moisture  
Dew Point 38 °F    
Average Humidity 72    
Maximum Humidity 89    
Minimum Humidity 54    
Precipitation  
Precipitation T in 0.10 in 1.32 in (1895)
Month to date precipitation 4.08 3.18  
Year to date precipitation 30.47 34.98  
Snow  
Snow 0.00 in 0.00 in 0.40 in (1925)
Month to date snowfall 0.0 0.0  
Since 1 July snowfall 0.0 0.0  
Since 1 September snowfall 0.0 0.0  
Snow Depth 0.00 in    
Sea Level Pressure  
Sea Level Pressure 29.55 in    
Wind  
Wind Speed 10 mph (SW)    
Max Wind Speed 17 mph    
Max Gust Speed 20 mph    
Visibility 10 miles    
Events      
T = Trace of Precipitation, MM = Missing Value Source: NWS Daily Summary

Daily Weather History Graph

Daily Weather History Graph

Search for Another Location

Airport or City:

Trip Planner

Search our weather history database for the weather conditions in past years. The results will help you decide how hot, cold, wet, or windy it might be!

Date:

Astronomy

Oct. 31, 2012 Rise Set
Actual Time 7:29 AM EDT 5:59 PM EDT
Civil Twilight 7:01 AM EDT 6:27 PM EDT
Nautical Twilight 6:29 AM EDT 6:59 PM EDT
Astronomical Twilight 5:57 AM EDT 7:30 PM EDT
Moon 7:09 PM EDT (10/31) 9:07 AM EDT (10/31)
Length of Visible Light 11h 26m
Length of Day
10h 30m
Full, 97% of the Moon is Illuminated
Oct 31
Full
Nov 6
Last Quarter
Nov 13
New
Nov 20
First Quarter
Nov 28
Full

Hourly Weather History & Observations

Time (EDT) Temp. Windchill Dew Point Humidity Pressure Visibility Wind Dir Wind Speed Gust Speed Precip Events Conditions
12:04 AM 42.8 °F 38.6 °F 39.2 °F 87% 29.49 in 10.0 mi South 6.9 mph - 0.00 in   Light Drizzle
12:54 AM 43.0 °F 38.2 °F 39.9 °F 89% 29.49 in 10.0 mi South 8.1 mph - 0.00 in   Overcast
1:05 AM 42.8 °F 38.6 °F 39.2 °F 87% 29.49 in 10.0 mi South 6.9 mph - N/A   Mostly Cloudy
1:54 AM 43.0 °F 38.2 °F 39.9 °F 89% 29.49 in 10.0 mi South 8.1 mph - N/A   Overcast
2:54 AM 44.1 °F 39.0 °F 39.9 °F 85% 29.49 in 10.0 mi South 9.2 mph - N/A   Overcast
3:54 AM 44.1 °F 39.0 °F 39.9 °F 85% 29.50 in 10.0 mi South 9.2 mph - N/A   Overcast
4:54 AM 44.1 °F 39.0 °F 39.9 °F 85% 29.51 in 10.0 mi SSW 9.2 mph - N/A   Overcast
5:54 AM 44.1 °F 38.6 °F 39.9 °F 85% 29.52 in 10.0 mi SSW 10.4 mph - N/A   Overcast
6:08 AM 44.6 °F 39.7 °F 39.2 °F 81% 29.52 in 10.0 mi SSW 9.2 mph - N/A   Overcast
6:54 AM 44.1 °F 38.1 °F 39.9 °F 85% 29.53 in 10.0 mi SSW 11.5 mph - 0.00 in   Overcast
7:27 AM 44.6 °F 40.2 °F 39.2 °F 81% 29.54 in 10.0 mi SSW 8.1 mph - N/A   Mostly Cloudy
7:54 AM 45.0 °F 40.6 °F 41.0 °F 86% 29.55 in 10.0 mi SSW 8.1 mph - N/A   Mostly Cloudy
8:54 AM 45.0 °F 41.8 °F 39.9 °F 82% 29.56 in 10.0 mi SW 5.8 mph - N/A   Overcast
9:54 AM 46.0 °F 42.5 °F 39.9 °F 79% 29.57 in 10.0 mi South 6.9 mph - N/A   Overcast
10:54 AM 46.9 °F - 39.9 °F 77% 29.57 in 10.0 mi SSW 13.8 mph 19.6 mph N/A   Overcast
11:49 AM 50.0 °F - 37.4 °F 62% 29.56 in 10.0 mi SW 13.8 mph - N/A   Mostly Cloudy
11:54 AM 50.0 °F - 39.0 °F 66% 29.56 in 10.0 mi SW 11.5 mph - N/A   Mostly Cloudy
12:16 PM 50.0 °F - 35.6 °F 58% 29.56 in 10.0 mi SW 18.4 mph 24.2 mph N/A   Mostly Cloudy
12:54 PM 48.9 °F - 37.0 °F 64% 29.56 in 10.0 mi SW 16.1 mph - N/A   Overcast
1:54 PM 50.0 °F - 37.0 °F 61% 29.57 in 10.0 mi West 17.3 mph - N/A   Overcast
2:54 PM 51.1 °F - 36.0 °F 56% 29.55 in 10.0 mi West 12.7 mph - N/A   Mostly Cloudy
3:54 PM 50.0 °F - 36.0 °F 59% 29.57 in 10.0 mi West 12.7 mph - N/A   Overcast
4:54 PM 50.0 °F - 36.0 °F 59% 29.58 in 10.0 mi WNW 9.2 mph - N/A   Overcast
5:54 PM 50.0 °F - 36.0 °F 59% 29.59 in 10.0 mi West 13.8 mph - N/A   Mostly Cloudy
6:54 PM 50.0 °F - 35.1 °F 57% 29.61 in 10.0 mi West 9.2 mph - N/A   Overcast
8:54 PM 46.9 °F - 36.0 °F 66% 29.62 in 10.0 mi WSW 6.9 mph - N/A   Mostly Cloudy
9:54 PM 46.0 °F 42.5 °F 36.0 °F 68% 29.62 in 10.0 mi West 6.9 mph - N/A   Mostly Cloudy
10:54 PM 46.9 °F - 36.0 °F 66% 29.63 in 10.0 mi WSW 8.1 mph - N/A   Overcast
11:54 PM 46.9 °F - 36.0 °F 66% 29.62 in 10.0 mi West 10.4 mph - N/A   Mostly Cloudy